Year,Month,Day,Hour,Minute,Value (Times are PST for temperature in C)
2018,04,10,00,00,9.60
2018,04,10,00,01,9.70
2018,04,10,00,02,9.80
2018,04,10,00,03,9.80
2018,04,10,00,04,9.90
2018,04,10,00,05,9.90
2018,04,10,00,06,9.80
2018,04,10,00,07,9.80
2018,04,10,00,08,9.80
2018,04,10,00,09,9.80
2018,04,10,00,10,9.80
2018,04,10,00,11,9.80
2018,04,10,00,12,9.90
2018,04,10,00,13,9.90
2018,04,10,00,14,9.90
2018,04,10,00,15,9.90
2018,04,10,00,16,9.90
2018,04,10,00,17,9.90
2018,04,10,00,18,9.90
2018,04,10,00,19,9.90
2018,04,10,00,20,9.90
2018,04,10,00,21,9.90
2018,04,10,00,22,9.90
2018,04,10,00,23,9.90
2018,04,10,00,24,10.00
2018,04,10,00,25,10.00
2018,04,10,00,26,10.00
2018,04,10,00,27,10.00
2018,04,10,00,28,10.00
2018,04,10,00,29,10.00
2018,04,10,00,30,10.00
2018,04,10,00,31,10.10
2018,04,10,00,32,10.20
2018,04,10,00,33,10.20
2018,04,10,00,34,10.30
2018,04,10,00,35,10.30
2018,04,10,00,36,10.30
2018,04,10,00,37,10.30
2018,04,10,00,38,10.30
2018,04,10,00,39,10.30
2018,04,10,00,40,10.30
2018,04,10,00,41,10.30
2018,04,10,00,42,10.30
2018,04,10,00,43,10.40
2018,04,10,00,44,10.40
2018,04,10,00,45,10.40
2018,04,10,00,46,10.40
2018,04,10,00,47,10.40
2018,04,10,00,48,10.40
2018,04,10,00,49,10.50
2018,04,10,00,50,10.50
2018,04,10,00,51,10.50
2018,04,10,00,52,10.50
2018,04,10,00,53,10.50
2018,04,10,00,54,10.50
2018,04,10,00,55,10.50
2018,04,10,00,56,10.40
2018,04,10,00,57,10.40
2018,04,10,00,58,10.40
2018,04,10,00,59,10.50
2018,04,10,01,00,10.50
2018,04,10,01,01,10.50
2018,04,10,01,02,10.50
2018,04,10,01,03,10.50
2018,04,10,01,04,10.50
2018,04,10,01,05,10.50
2018,04,10,01,06,10.50
2018,04,10,01,07,10.60
2018,04,10,01,08,10.60
2018,04,10,01,09,10.50
2018,04,10,01,10,10.50
2018,04,10,01,11,10.50
2018,04,10,01,12,10.50
2018,04,10,01,13,10.50
2018,04,10,01,14,10.50
2018,04,10,01,15,10.50
2018,04,10,01,16,10.40
2018,04,10,01,17,10.40
2018,04,10,01,18,10.40
2018,04,10,01,19,10.40
2018,04,10,01,20,10.40
2018,04,10,01,21,10.40
2018,04,10,01,22,10.40
2018,04,10,01,23,10.40
2018,04,10,01,24,10.40
2018,04,10,01,25,10.30
2018,04,10,01,26,10.30
2018,04,10,01,27,10.30
2018,04,10,01,28,10.30
2018,04,10,01,29,10.30
2018,04,10,01,30,10.30
2018,04,10,01,31,10.30
2018,04,10,01,32,10.30
2018,04,10,01,33,10.30
2018,04,10,01,34,10.30
2018,04,10,01,35,10.30
2018,04,10,01,36,10.30
2018,04,10,01,37,10.20
2018,04,10,01,38,10.20
2018,04,10,01,39,10.20
2018,04,10,01,40,10.10
2018,04,10,01,41,10.10
2018,04,10,01,42,10.10
2018,04,10,01,43,10.00
2018,04,10,01,44,10.00
2018,04,10,01,45,10.00
2018,04,10,01,46,10.00
2018,04,10,01,47,10.00
2018,04,10,01,48,10.00
2018,04,10,01,49,9.90
2018,04,10,01,50,9.90
2018,04,10,01,51,9.90
2018,04,10,01,52,10.00
2018,04,10,01,53,10.00
2018,04,10,01,54,10.00
2018,04,10,01,55,10.00
2018,04,10,01,56,10.00
2018,04,10,01,57,10.00
2018,04,10,01,58,10.00
2018,04,10,01,59,10.00
2018,04,10,02,00,10.10
2018,04,10,02,01,10.10
2018,04,10,02,02,10.10
2018,04,10,02,03,10.10
2018,04,10,02,04,10.00
2018,04,10,02,05,10.00
2018,04,10,02,06,10.00
2018,04,10,02,07,10.00
2018,04,10,02,08,10.00
2018,04,10,02,09,10.00
2018,04,10,02,10,10.00
2018,04,10,02,11,10.00
2018,04,10,02,12,9.90
2018,04,10,02,13,10.00
2018,04,10,02,14,9.90
2018,04,10,02,15,10.00
2018,04,10,02,16,10.00
2018,04,10,02,17,10.00
2018,04,10,02,18,10.10
2018,04,10,02,19,10.10
2018,04,10,02,20,10.20
2018,04,10,02,21,10.20
2018,04,10,02,22,10.20
2018,04,10,02,23,10.30
2018,04,10,02,24,10.30
2018,04,10,02,25,10.30
2018,04,10,02,26,10.40
2018,04,10,02,27,10.40
2018,04,10,02,28,10.40
2018,04,10,02,29,10.50
2018,04,10,02,30,10.60
2018,04,10,02,31,10.60
2018,04,10,02,32,10.70
2018,04,10,02,33,10.80
2018,04,10,02,34,10.80
2018,04,10,02,35,10.70
2018,04,10,02,36,10.70
2018,04,10,02,37,10.80
2018,04,10,02,38,10.80
2018,04,10,02,39,11.00
2018,04,10,02,40,11.20
2018,04,10,02,41,11.30
2018,04,10,02,42,11.40
2018,04,10,02,43,11.40
2018,04,10,02,44,11.40
2018,04,10,02,45,11.30
2018,04,10,02,46,11.30
2018,04,10,02,47,11.20
2018,04,10,02,48,11.10
2018,04,10,02,49,11.10
2018,04,10,02,50,11.10
2018,04,10,02,51,11.00
2018,04,10,02,52,11.00
2018,04,10,02,53,10.90
2018,04,10,02,54,10.80
2018,04,10,02,55,10.80
2018,04,10,02,56,10.80
2018,04,10,02,57,10.80
2018,04,10,02,58,10.80
2018,04,10,02,59,10.90
2018,04,10,03,00,10.90
2018,04,10,03,01,10.90
2018,04,10,03,02,10.90
2018,04,10,03,03,10.90
2018,04,10,03,04,10.90
2018,04,10,03,05,10.90
2018,04,10,03,06,10.90
2018,04,10,03,07,10.90
2018,04,10,03,08,11.00
2018,04,10,03,09,11.00
2018,04,10,03,10,11.00
2018,04,10,03,11,11.10
2018,04,10,03,12,11.10
2018,04,10,03,13,11.10
2018,04,10,03,14,11.10
2018,04,10,03,15,11.10
2018,04,10,03,16,11.00
2018,04,10,03,17,11.00
2018,04,10,03,18,10.90
2018,04,10,03,19,10.90
2018,04,10,03,20,10.90
2018,04,10,03,21,10.90
2018,04,10,03,22,10.90
2018,04,10,03,23,10.90
2018,04,10,03,24,10.80
2018,04,10,03,25,10.80
2018,04,10,03,26,10.80
2018,04,10,03,27,10.70
2018,04,10,03,28,10.70
2018,04,10,03,29,10.70
2018,04,10,03,30,10.70
2018,04,10,03,31,10.70
2018,04,10,03,32,10.80
2018,04,10,03,33,10.80
2018,04,10,03,34,10.80
2018,04,10,03,35,10.80
2018,04,10,03,36,10.80
2018,04,10,03,37,10.80
2018,04,10,03,38,10.80
2018,04,10,03,39,10.80
2018,04,10,03,40,10.80
2018,04,10,03,41,10.80
2018,04,10,03,42,10.80
2018,04,10,03,43,10.80
2018,04,10,03,44,10.90
2018,04,10,03,45,10.80
2018,04,10,03,46,10.80
2018,04,10,03,47,10.80
2018,04,10,03,48,10.80
2018,04,10,03,49,10.80
2018,04,10,03,50,10.80
2018,04,10,03,51,10.80
2018,04,10,03,52,10.80
2018,04,10,03,53,10.80
2018,04,10,03,54,10.80
2018,04,10,03,55,10.80
2018,04,10,03,56,10.80
2018,04,10,03,57,10.90
2018,04,10,03,58,10.90
2018,04,10,03,59,10.90
2018,04,10,04,00,10.90
2018,04,10,04,01,10.90
2018,04,10,04,02,10.90
2018,04,10,04,03,10.90
2018,04,10,04,04,10.90
2018,04,10,04,05,10.90
2018,04,10,04,06,10.90
2018,04,10,04,07,10.90
2018,04,10,04,08,10.90
2018,04,10,04,09,11.00
2018,04,10,04,10,11.00
2018,04,10,04,11,11.00
2018,04,10,04,12,10.90
2018,04,10,04,13,10.90
2018,04,10,04,14,10.80
2018,04,10,04,15,10.80
2018,04,10,04,16,10.70
2018,04,10,04,17,10.70
2018,04,10,04,18,10.60
2018,04,10,04,19,10.60
2018,04,10,04,20,10.60
2018,04,10,04,21,10.60
2018,04,10,04,22,10.60
2018,04,10,04,23,10.50
2018,04,10,04,24,10.60
2018,04,10,04,25,10.60
2018,04,10,04,26,10.60
2018,04,10,04,27,10.60
2018,04,10,04,28,10.60
2018,04,10,04,29,10.60
2018,04,10,04,30,10.70
2018,04,10,04,31,10.70
2018,04,10,04,32,10.80
2018,04,10,04,33,10.80
2018,04,10,04,34,10.80
2018,04,10,04,35,10.80
2018,04,10,04,36,10.80
2018,04,10,04,37,10.80
2018,04,10,04,38,10.80
2018,04,10,04,39,10.90
2018,04,10,04,40,10.90
2018,04,10,04,41,10.90
2018,04,10,04,42,10.80
2018,04,10,04,43,10.80
2018,04,10,04,44,10.70
2018,04,10,04,45,10.60
2018,04,10,04,46,10.50
2018,04,10,04,47,10.40
2018,04,10,04,48,10.40
2018,04,10,04,49,10.30
2018,04,10,04,50,10.30
2018,04,10,04,51,10.20
2018,04,10,04,52,10.20
2018,04,10,04,53,10.20
2018,04,10,04,54,10.30
2018,04,10,04,55,10.30
2018,04,10,04,56,10.30
2018,04,10,04,57,10.30
2018,04,10,04,58,10.40
2018,04,10,04,59,10.40
2018,04,10,05,00,10.30
2018,04,10,05,01,10.20
2018,04,10,05,02,10.10
2018,04,10,05,03,10.00
2018,04,10,05,04,10.00
2018,04,10,05,05,10.00
2018,04,10,05,06,10.10
2018,04,10,05,07,10.10
2018,04,10,05,08,10.10
2018,04,10,05,09,10.10
2018,04,10,05,10,10.10
2018,04,10,05,11,10.10
2018,04,10,05,12,10.10
2018,04,10,05,13,10.10
2018,04,10,05,14,10.10
2018,04,10,05,15,10.10
2018,04,10,05,16,10.10
2018,04,10,05,17,10.10
2018,04,10,05,18,10.10
2018,04,10,05,19,10.10
2018,04,10,05,20,10.10
2018,04,10,05,21,10.10
2018,04,10,05,22,10.10
2018,04,10,05,23,10.10
2018,04,10,05,24,10.10
2018,04,10,05,25,10.00
2018,04,10,05,26,9.90
2018,04,10,05,27,9.80
2018,04,10,05,28,9.70
2018,04,10,05,29,9.60
2018,04,10,05,30,9.60
2018,04,10,05,31,9.50
2018,04,10,05,32,9.40
2018,04,10,05,33,9.40
2018,04,10,05,34,9.50
2018,04,10,05,35,9.60
2018,04,10,05,36,9.60
2018,04,10,05,37,9.60
2018,04,10,05,38,9.50
2018,04,10,05,39,9.40
2018,04,10,05,40,9.40
2018,04,10,05,41,9.30
2018,04,10,05,42,9.30
2018,04,10,05,43,9.20
2018,04,10,05,44,9.20
2018,04,10,05,45,9.10
2018,04,10,05,46,9.10
2018,04,10,05,47,9.10
2018,04,10,05,48,9.10
2018,04,10,05,49,9.00
2018,04,10,05,50,9.00
2018,04,10,05,51,9.00
2018,04,10,05,52,9.00
2018,04,10,05,53,9.00
2018,04,10,05,54,9.00
2018,04,10,05,55,9.00
2018,04,10,05,56,9.00
2018,04,10,05,57,9.00
2018,04,10,05,58,9.00
2018,04,10,05,59,9.00
2018,04,10,06,00,9.10
2018,04,10,06,01,9.30
2018,04,10,06,02,9.40
2018,04,10,06,03,9.60
2018,04,10,06,04,9.80
2018,04,10,06,05,9.80
2018,04,10,06,06,9.80
2018,04,10,06,07,9.70
2018,04,10,06,08,9.60
2018,04,10,06,09,9.60
2018,04,10,06,10,9.50
2018,04,10,06,11,9.50
2018,04,10,06,12,9.40
2018,04,10,06,13,9.40
2018,04,10,06,14,9.40
2018,04,10,06,15,9.40
2018,04,10,06,16,9.50
2018,04,10,06,17,9.50
2018,04,10,06,18,9.50
2018,04,10,06,19,9.60
2018,04,10,06,20,9.60
2018,04,10,06,21,9.80
2018,04,10,06,22,10.00
2018,04,10,06,23,10.20
2018,04,10,06,24,10.40
2018,04,10,06,25,10.40
2018,04,10,06,26,10.50
2018,04,10,06,27,10.50
2018,04,10,06,28,10.50
2018,04,10,06,29,10.50
2018,04,10,06,30,10.50
2018,04,10,06,31,10.50
2018,04,10,06,32,10.50
2018,04,10,06,33,10.60
2018,04,10,06,34,10.60
2018,04,10,06,35,10.60
2018,04,10,06,36,10.60
2018,04,10,06,37,10.60
2018,04,10,06,38,10.60
2018,04,10,06,39,10.60
2018,04,10,06,40,10.60
2018,04,10,06,41,10.50
2018,04,10,06,42,10.50
2018,04,10,06,43,10.50
2018,04,10,06,44,10.50
2018,04,10,06,45,10.40
2018,04,10,06,46,10.40
2018,04,10,06,47,10.40
2018,04,10,06,48,10.30
2018,04,10,06,49,10.30
2018,04,10,06,50,10.20
2018,04,10,06,51,10.20
2018,04,10,06,52,10.20
2018,04,10,06,53,10.20
2018,04,10,06,54,10.10
2018,04,10,06,55,10.10
2018,04,10,06,56,10.00
2018,04,10,06,57,10.00
2018,04,10,06,58,10.10
2018,04,10,06,59,10.20
2018,04,10,07,00,10.30
2018,04,10,07,01,10.30
2018,04,10,07,02,10.30
2018,04,10,07,03,10.30
2018,04,10,07,04,10.30
2018,04,10,07,05,10.30
2018,04,10,07,06,10.30
2018,04,10,07,07,10.20
2018,04,10,07,08,10.20
2018,04,10,07,09,10.00
2018,04,10,07,10,10.00
2018,04,10,07,11,9.90
2018,04,10,07,12,9.90
2018,04,10,07,13,9.80
2018,04,10,07,14,9.80
2018,04,10,07,15,9.80
2018,04,10,07,16,9.70
2018,04,10,07,17,9.60
2018,04,10,07,18,9.60
2018,04,10,07,19,9.50
2018,04,10,07,20,9.50
2018,04,10,07,21,9.40
2018,04,10,07,22,9.40
2018,04,10,07,23,9.40
2018,04,10,07,24,9.40
2018,04,10,07,25,9.40
2018,04,10,07,26,9.40
2018,04,10,07,27,9.40
2018,04,10,07,28,9.40
2018,04,10,07,29,9.50
2018,04,10,07,30,9.50
2018,04,10,07,31,9.50
2018,04,10,07,32,9.50
2018,04,10,07,33,9.50
2018,04,10,07,34,9.50
2018,04,10,07,35,9.40
2018,04,10,07,36,9.40
2018,04,10,07,37,9.40
2018,04,10,07,38,9.40
2018,04,10,07,39,9.40
2018,04,10,07,40,9.50
2018,04,10,07,41,9.40
2018,04,10,07,42,9.40
2018,04,10,07,43,9.40
2018,04,10,07,44,9.40
2018,04,10,07,45,9.40
2018,04,10,07,46,9.40
2018,04,10,07,47,9.40
2018,04,10,07,48,9.40
2018,04,10,07,49,9.40
2018,04,10,07,50,9.40
2018,04,10,07,51,9.40
2018,04,10,07,52,9.40
2018,04,10,07,53,9.30
2018,04,10,07,54,9.30
2018,04,10,07,55,9.30
2018,04,10,07,56,9.30
2018,04,10,07,57,9.30
2018,04,10,07,58,9.30
2018,04,10,07,59,9.30
2018,04,10,08,00,9.30
2018,04,10,08,01,9.30
2018,04,10,08,02,9.30
2018,04,10,08,03,9.30
2018,04,10,08,04,9.40
2018,04,10,08,05,9.40
2018,04,10,08,06,9.40
2018,04,10,08,07,9.40
2018,04,10,08,08,9.40
2018,04,10,08,09,9.50
2018,04,10,08,10,9.60
2018,04,10,08,11,9.90
2018,04,10,08,12,10.10
2018,04,10,08,13,10.20
2018,04,10,08,14,10.20
2018,04,10,08,15,10.30
2018,04,10,08,16,10.40
2018,04,10,08,17,10.50
2018,04,10,08,18,10.50
2018,04,10,08,19,10.50
2018,04,10,08,20,10.40
2018,04,10,08,21,10.30
2018,04,10,08,22,10.40
2018,04,10,08,23,10.70
2018,04,10,08,24,11.00
2018,04,10,08,25,11.30
2018,04,10,08,26,11.30
2018,04,10,08,27,11.30
2018,04,10,08,28,11.20
2018,04,10,08,29,11.10
2018,04,10,08,30,11.00
2018,04,10,08,31,10.90
2018,04,10,08,32,10.90
2018,04,10,08,33,10.80
2018,04,10,08,34,10.70
2018,04,10,08,35,10.60
2018,04,10,08,36,10.60
2018,04,10,08,37,10.70
2018,04,10,08,38,10.70
2018,04,10,08,39,10.70
2018,04,10,08,40,10.70
2018,04,10,08,41,10.80
2018,04,10,08,42,10.80
2018,04,10,08,43,10.90
2018,04,10,08,44,10.90
2018,04,10,08,45,10.80
2018,04,10,08,46,10.80
2018,04,10,08,47,10.80
2018,04,10,08,48,10.70
2018,04,10,08,49,10.70
2018,04,10,08,50,10.70
2018,04,10,08,51,10.80
2018,04,10,08,52,10.90
2018,04,10,08,53,10.90
2018,04,10,08,54,10.90
2018,04,10,08,55,10.90
2018,04,10,08,56,10.90
2018,04,10,08,57,10.90
2018,04,10,08,58,10.80
2018,04,10,08,59,10.70
2018,04,10,09,00,10.70
2018,04,10,09,01,10.60
2018,04,10,09,02,10.60
2018,04,10,09,03,10.60
2018,04,10,09,04,10.50
2018,04,10,09,05,10.40
2018,04,10,09,06,10.40
2018,04,10,09,07,10.20
2018,04,10,09,08,10.10
2018,04,10,09,09,10.00
2018,04,10,09,10,9.90
2018,04,10,09,11,9.80
2018,04,10,09,12,9.70
2018,04,10,09,13,9.60
2018,04,10,09,14,9.60
2018,04,10,09,15,9.50
2018,04,10,09,16,9.50
2018,04,10,09,17,9.50
2018,04,10,09,18,9.40
2018,04,10,09,19,9.40
2018,04,10,09,20,9.40
2018,04,10,09,21,9.40
2018,04,10,09,22,9.40
2018,04,10,09,23,9.40
2018,04,10,09,24,9.40
2018,04,10,09,25,9.40
2018,04,10,09,26,9.40
2018,04,10,09,27,9.40
2018,04,10,09,28,9.30
2018,04,10,09,29,9.30
2018,04,10,20,18,7.90
2018,04,10,20,19,7.90
2018,04,10,20,20,7.90
2018,04,10,20,21,7.90
2018,04,10,20,22,7.90
2018,04,10,20,23,7.90
2018,04,10,20,24,8.00
2018,04,10,20,25,8.00
2018,04,10,20,26,8.10
2018,04,10,20,27,8.10
2018,04,10,20,28,8.10
2018,04,10,20,29,8.10
2018,04,10,20,30,8.10
2018,04,10,20,31,8.20
2018,04,10,20,32,8.20
2018,04,10,20,33,8.20
2018,04,10,20,34,8.20
2018,04,10,20,35,8.20
2018,04,10,20,36,8.20
2018,04,10,20,37,8.20
2018,04,10,20,38,8.20
2018,04,10,20,39,8.10
2018,04,10,20,40,8.10
2018,04,10,20,41,8.10
2018,04,10,20,42,8.10
2018,04,10,20,43,8.10
2018,04,10,20,44,8.10
2018,04,10,20,45,8.10
2018,04,10,20,46,8.10
2018,04,10,20,47,8.10
2018,04,10,20,48,8.10
2018,04,10,20,49,8.10
2018,04,10,20,50,8.10
2018,04,10,20,51,8.10
2018,04,10,20,52,8.10
2018,04,10,20,53,8.10
2018,04,10,20,54,8.10
2018,04,10,20,55,8.00
2018,04,10,20,56,8.10
2018,04,10,20,57,8.10
2018,04,10,20,58,8.00
2018,04,10,20,59,8.00
2018,04,10,21,00,8.00
2018,04,10,21,01,8.00
2018,04,10,21,02,7.90
2018,04,10,21,03,7.90
2018,04,10,21,04,7.90
2018,04,10,21,05,7.90
2018,04,10,21,06,7.80
2018,04,10,21,07,7.80
2018,04,10,21,08,7.80
2018,04,10,21,09,7.80
2018,04,10,21,10,7.80
2018,04,10,21,11,7.80
2018,04,10,21,12,7.80
2018,04,10,21,13,7.80
2018,04,10,21,14,7.80
2018,04,10,21,15,7.80
2018,04,10,21,16,7.70
2018,04,10,21,17,7.70
2018,04,10,21,18,7.70
2018,04,10,21,19,7.70
2018,04,10,21,20,7.70
2018,04,10,21,21,7.60
2018,04,10,21,22,7.60
2018,04,10,21,23,7.60
2018,04,10,21,24,7.60
2018,04,10,21,25,7.60
2018,04,10,21,26,7.60
2018,04,10,21,27,7.60
2018,04,10,21,28,7.60
2018,04,10,21,29,7.50
2018,04,10,21,30,7.50
2018,04,10,21,31,7.50
2018,04,10,21,32,7.50
2018,04,10,21,33,7.50
2018,04,10,21,34,7.50
2018,04,10,21,35,7.60
2018,04,10,21,36,7.60
2018,04,10,21,37,7.60
2018,04,10,21,38,7.60
2018,04,10,21,39,7.60
2018,04,10,21,40,7.60
2018,04,10,21,41,7.60
2018,04,10,21,42,7.60
2018,04,10,21,43,7.60
2018,04,10,21,44,7.60
2018,04,10,21,45,7.60
2018,04,10,21,46,7.60
2018,04,10,21,47,7.70
2018,04,10,21,48,7.80
2018,04,10,21,49,7.80
2018,04,10,21,50,7.80
2018,04,10,21,51,7.90
2018,04,10,21,52,7.80
2018,04,10,21,53,7.80
2018,04,10,21,54,7.80
2018,04,10,21,55,7.80
2018,04,10,21,56,7.80
2018,04,10,21,57,7.80
2018,04,10,21,58,7.80
2018,04,10,21,59,7.70
2018,04,10,22,00,7.70
2018,04,10,22,01,7.70
2018,04,10,22,02,7.80
2018,04,10,22,03,7.80
2018,04,10,22,04,7.80
2018,04,10,22,05,7.80
2018,04,10,22,06,7.80
2018,04,10,22,07,7.80
2018,04,10,22,08,7.80
2018,04,10,22,09,7.80
2018,04,10,22,10,7.80
2018,04,10,22,11,7.90
2018,04,10,22,12,7.90
2018,04,10,22,13,7.90
2018,04,10,22,14,7.80
2018,04,10,22,15,7.80
2018,04,10,22,16,7.80
2018,04,10,22,17,7.80
2018,04,10,22,18,7.80
2018,04,10,22,19,7.80
2018,04,10,22,20,7.80
2018,04,10,22,21,7.80
2018,04,10,22,22,7.80
2018,04,10,22,23,7.80
2018,04,10,22,24,7.80
2018,04,10,22,25,7.80
2018,04,10,22,26,7.80
2018,04,10,22,27,7.80
2018,04,10,22,28,7.80
2018,04,10,22,29,7.80
2018,04,10,22,30,7.80
2018,04,10,22,31,7.70
2018,04,10,22,32,7.70
2018,04,10,22,33,7.70
2018,04,10,22,34,7.70
2018,04,10,22,35,7.80
2018,04,10,22,36,7.80
2018,04,10,22,37,7.80
2018,04,10,22,38,7.80
2018,04,10,22,39,7.80
2018,04,10,22,40,7.80
2018,04,10,22,41,7.70
2018,04,10,22,42,7.70
2018,04,10,22,43,7.70
2018,04,10,22,44,7.60
2018,04,10,22,45,7.60
2018,04,10,22,46,7.50
2018,04,10,22,47,7.50
2018,04,10,22,48,7.50
2018,04,10,22,49,7.40
2018,04,10,22,50,7.40
2018,04,10,22,51,7.50
2018,04,10,22,52,7.50
2018,04,10,22,53,7.50
2018,04,10,22,54,7.50
2018,04,10,22,55,7.50
2018,04,10,22,56,7.50
2018,04,10,22,57,7.50
2018,04,10,22,58,7.50
2018,04,10,22,59,7.50
2018,04,10,23,00,7.50
2018,04,10,23,01,7.50
2018,04,10,23,02,7.50
2018,04,10,23,03,7.60
2018,04,10,23,04,7.60
2018,04,10,23,05,7.60
2018,04,10,23,06,7.50
2018,04,10,23,07,7.60
2018,04,10,23,08,7.50
2018,04,10,23,09,7.50
2018,04,10,23,10,7.50
2018,04,10,23,11,7.50
2018,04,10,23,12,7.60
2018,04,10,23,13,7.60
2018,04,10,23,14,7.50
2018,04,10,23,15,7.50
2018,04,10,23,16,7.50
2018,04,10,23,17,7.60
2018,04,10,23,18,7.60
2018,04,10,23,19,7.60
2018,04,10,23,20,7.50
2018,04,10,23,21,7.50
2018,04,10,23,22,7.40
2018,04,10,23,23,7.30
2018,04,10,23,24,7.30
2018,04,10,23,25,7.30
2018,04,10,23,26,7.20
2018,04,10,23,27,7.20
2018,04,10,23,28,7.20
2018,04,10,23,29,7.20
2018,04,10,23,30,7.20
2018,04,10,23,31,7.30
2018,04,10,23,32,7.30
2018,04,10,23,33,7.30
2018,04,10,23,34,7.20
2018,04,10,23,35,7.20
2018,04,10,23,36,7.20
2018,04,10,23,37,7.20
2018,04,10,23,38,7.10
2018,04,10,23,39,7.10
2018,04,10,23,40,7.10
2018,04,10,23,41,7.10
2018,04,10,23,42,7.10
2018,04,10,23,43,7.00
2018,04,10,23,44,7.00
2018,04,10,23,45,7.00
2018,04,10,23,46,7.00
2018,04,10,23,47,7.00
2018,04,10,23,48,7.10
2018,04,10,23,49,7.10
2018,04,10,23,50,7.00
2018,04,10,23,51,7.00
2018,04,10,23,52,7.00
2018,04,10,23,53,7.00
2018,04,10,23,54,7.00
2018,04,10,23,55,6.90
2018,04,10,23,56,6.90
2018,04,10,23,57,6.90
2018,04,10,23,58,6.90
2018,04,10,23,59,6.90
